Regional Weather Roundup
Issued by NWS

Home | Current Version | Previous Version | Graphics & Text | Print | Product List | Glossary On
Versions: 1 2 3 4 5 6 7 8 9 10 11 12 13 14 15 16 17 18 19 20 21 22 23 24 25 26 27 28 29 30 31 32 33 34 35 36 37 38 39 40 41 42 43 44 45 46 47 48 49 50
000
ASUS43 KMPX 211510
RWRMN
WEATHER ROUNDUP FOR MINNESOTA
NATIONAL WEATHER SERVICE TWIN CITIES/CHANHASSEN MN
1000 AM CDT SAT APR 21 2018


NOTE: "FAIR" INDICATES FEW OR NO CLOUDS BELOW 12,000 FEET WITH NO
SIGNIFICANT WEATHER AND/OR OBSTRUCTIONS TO VISIBILITY. N/A MEANS
CURRENT SKY AND/OR WEATHER CONDITIONS ARE NOT AVAILABLE.

MNZ060>063-068>070-211600-
   Twin Cities Metro

CITY           SKY/WX    TMP DP  RH WIND       PRES   REMARKS
TWIN CITIES    FAIR      47  27  45 S5        30.43F
ST PAUL        FAIR      47  28  47 CALM      30.44F
CRYSTAL        FAIR      47  25  42 CALM      30.42F
BLAINE         PTSUNNY   48  27  43 CALM      30.42F
LAKEVILLE      FAIR      41  30  65 CALM      30.43R
EDEN PRAIRIE   FAIR      46  26  45 E3        30.42F
SOUTH ST PAUL  FAIR      46  28  49 CALM      30.43S
LAKE ELMO      FAIR      46  27  46 CALM      30.43F
$$
MNZ001>005-007-008-013>017-022>024-027-028-211600-
   Northwest Minnesota

CITY           SKY/WX    TMP DP  RH WIND       PRES   REMARKS
BEMIDJI        FAIR      48  32  54 S6        30.38S
HALLOCK        FAIR      45  41  87 S13       30.32F
ROSEAU         FAIR      46  39  76 S9        30.35S
WARROAD        FAIR      48  39  71 S6        30.35F
THIEF RVR FALL PTSUNNY   42  37  82 S8        30.37S
CROOKSTON      PTSUNNY   41  37  87 S12       30.37F
FOSSTON        CLOUDY    48  36  61 SW7       30.38S
DETROIT LAKES  FAIR      46  32  57 S3        30.39F
MOORHEAD       FAIR      43  36  75 S5        30.38F
PARK RAPIDS    FAIR      44  31  60 S3        30.39F
MAHNOMEN       FAIR      47  35  65 SW12      30.38S
$$
MNZ006-009>011-018-025>026-211600-
   North Central Minnesota

CITY           SKY/WX    TMP DP  RH WIND       PRES   REMARKS
BAUDETTE       FAIR      49  33  54 S7        30.35F
FLAG ISLAND    FAIR      37  30  75 SE8       30.34F
INTL FALLS     FAIR      50  31  48 VRB3      30.37F
WASKISH        PTSUNNY   46  32  57 W3        30.38F
BIG FORK       FAIR      48  30  49 S3        30.38S
LONGVILLE      FAIR      46  28  49 W3        30.40S
GRAND RAPIDS   FAIR      48  33  56 CALM      30.42F
CRANE LAKE     FAIR      46  25  42 CALM      30.39F
ORR            FAIR      46  21  36 CALM      30.36S
COOK           FAIR      48  27  43 CALM      30.38F
WALKER         FAIR      44  31  60 CALM      30.39F
$$
MNZ012-019>021-037-211600-
   Northeast Minnesota

CITY           SKY/WX    TMP DP  RH WIND       PRES   REMARKS
DULUTH         FAIR      51  25  36 VRB5      30.39F
ELY            FAIR      48  23  37 CALM      30.37F
HIBBING        FAIR      47  25  42 SW3       30.39S
EVELETH        FAIR      49  25  40 CALM      30.39F
DULUTH HARBOR  FAIR      48  27  43 CALM      30.42F
TWO HARBORS    FAIR      57  32  38 S6        30.38S
SILVER BAY     FAIR      54  27  35 S6        30.37S
GRAND MARAIS     N/A     36  29  75 SW6       30.40S
G MARAIS ARPRT FAIR      54  19  26 CALM      30.37S
$$
MNZ029>031-032-039>041-046>048-054>057-064-211600-
   West Central Minnesota

CITY           SKY/WX    TMP DP  RH WIND       PRES   REMARKS
FERGUS FALLS   FAIR      45  34  65 S6        30.37F
WHEATON        SUNNY     45  36  70 SE6       30.41S
MORRIS         CLOUDY    45  36  70 SE7       30.39S
ALEXANDRIA     FAIR      48  28  46 S8        30.40F
ELBOW LAKE     FAIR      46  33  60 S7        30.40S
WADENA         FAIR      45  34  65 CALM      30.39F
GLENWOOD       FAIR      46  28  49 SE3       30.41S
APPLETON       MOSUNNY   45  32  61 SE5       30.40S
BENSON         MOSUNNY   48  27  43 S6        30.41F
ORTONVILLE     CLOUDY    45  36  70 SE6       30.39S
MADISON        CLOUDY    43  36  75 SE5       30.40R
WILLMAR        FAIR      45  30  57 SE6       30.43S
$$
MNZ033>034-036-042>043-049>051-058-059-211600-
   Central Minnesota

CITY           SKY/WX    TMP DP  RH WIND       PRES   REMARKS
ST CLOUD       FAIR      44  30  57 S5        30.42F
SAUK CENTRE    FAIR      44  31  60 SE3       30.41F
PAYNESVILLE    FAIR      45  28  51 CALM      30.41F
AITKIN         FAIR      46  30  53 CALM      30.39F
PINE RIVER     FAIR      43  30  61 CALM      30.42F
BRAINERD       FAIR      48  28  46 CALM      30.41F
STAPLES        FAIR      45  28  53 S3        30.40F
LONG PRAIRIE   FAIR      43  30  61 CALM      30.41F
LITTLE FALLS   FAIR      45  21  39 CALM      30.42S
LITCHFIELD     FAIR      46  28  49 E5        30.42F
BUFFALO        FAIR      45  29  53 CALM      30.44S
MAPLE LAKE     FAIR      46  29  52 CALM      30.43F
HUTCHINSON     FAIR      44  33  64 E6        30.43S
$$
MNZ037-044-045-052-053-211600-
   East Central Minnesota

CITY           SKY/WX    TMP DP  RH WIND       PRES   REMARKS
PRINCETON      FAIR      48  27  43 CALM      30.43S
MORA           FAIR      45  30  57 CALM      30.44F
CAMBRIDGE      FAIR      48  28  46 CALM      30.43F
RUSH CITY      FAIR      44  28  52 CALM      30.44S
MOOSE LAKE     FAIR      46  32  57 CALM      30.39F
HINCKLEY       FAIR      45  32  61 CALM      30.43S
CLOQUET        FAIR      50  19  29 S3        30.40F
MCGREGOR       FAIR      48  32  53 CALM      30.41F
$$
MNZ071>073-080-081-089-090-097-098-211600-
   Southwest Minnesota

CITY           SKY/WX    TMP DP  RH WIND       PRES   REMARKS
MONTEVIDEO     MOSUNNY   45  34  65 S7        30.41S
GRANITE FALLS  CLOUDY    42  33  69 SE5       30.42S
CANBY          CLOUDY    40  33  76 E3        30.41S
MARSHALL       CLOUDY    40  30  67 SE5       30.41S
REDWOOD FALLS  PTSUNNY   40  30  67 SE6       30.41S
OLIVIA         CLOUDY    43  30  61 SE6       30.41S
PIPESTONE      CLOUDY   N/A N/A N/A E6        30.37S
WINDOM         CLOUDY    37  21  52 NE8       30.40S
WORTHINGTON    CLOUDY    38  32  79 NE7       30.38F
JACKSON        CLOUDY    36  32  87 NE7       30.40R
TRACY          CLOUDY    40  33  75 S3        30.39F
SLAYTON        CLOUDY    38  30  74 E6        30.39F
$$
MNZ065>067-074>077-082>085-091>093-211600-
   South Central Minnesota

CITY           SKY/WX    TMP DP  RH WIND       PRES   REMARKS
MANKATO        FAIR      43  30  60 NE3       30.42S
NEW ULM        CLOUDY    41  28  60 NE5       30.42S
ST JAMES       CLOUDY    37  30  75 NE3       30.41F
FAIRMONT       CLOUDY    37  29  72 NE8       30.40F
GLENCOE        FAIR      43  31  64 E5        30.42F
OWATONNA       CLOUDY    43  30  61 E6        30.41F
WASECA         CLOUDY    41  32  70 E3        30.42F
ALBERT LEA     CLOUDY    43  27  52 CALM      30.40S
$$
MNZ078>079-086>088-094>096-211600-
   Southeast Minnesota

CITY           SKY/WX    TMP DP  RH WIND       PRES   REMARKS
ROCHESTER      CLOUDY    44  32  62 CALM      30.41S
RED WING       FAIR      45  27  49 S5        30.42F
STANTON        FAIR      41  33  73 CALM      30.41F
DODGE CENTER   PTSUNNY   39  30  70 CALM      30.41S
WINONA         CLOUDY    41  30  65 CALM      30.42S
AUSTIN         CLOUDY    39  30  70 SE5       30.41S
PRESTON        CLOUDY    41  31  67 S7        30.42R
$$
ABBREVIATIONS USED IN REMARKS
   TC - TEMPERATURES IN CELSIUS
  WCI - WIND CHILL INDEX
   HX - HEAT INDEX
  VSB - VISIBILITY
$$




USA.gov is the U.S. government's official web portal to all federal, state and local government web resources and services.